FALCON 9 DEB (46799 NORAD) Tracking and Keplerian Element Data

This shows tracking and keplerian element data for the satellite.

Feedback or suggestion? Click here.




ElementValue
Catalog46799
NameFALCON 9 DEB
Epoch Orbit491
Epoch Day326.24359001
Epoch Year2020
RAAN18.5237
Inclination53.0361
Eccentricity0.0003242
Argument of Perigee3.9918
Mean Anonmoly356.1155
Mean Motion16.42797283
Decay Rate0.07311469
L11 46799U 20074BN 20326.24359001 .07311469 12493-4 37337-3 0 9995
L22 46799 53.0361 18.5237 0003242 3.9918 356.1155 16.42797283 4911

Live tracking and technical data element details for FALCON 9 DEB (NORAD 46799). FALCON 9 DEB can be tracked NOW for your location showing map with azimuth and elevation plus other details from your city location.

Track the satellite on the map from your city or location and see movement details for azimuth, elevation, latitude, longitude, range, height, and movement on the map or in text.







IsCatalogInMostPopularTable: catalog: 46799, numindb: 6
Update: records affected: 1



GetName: 46799 FALCON 9 DEB

Hit Count: updated at: Thu, 26 Nov 2020 21:12:40 GMT